Hourly Data Report for May 30, 2012

All times are specified in Local Standard Time (LST). Add 1 hour to adjust for Daylight Saving Time where and when it is observed.

GANDER INTL A
NEWFOUNDLAND

48°56'13.000" N
54°34'05.000" W
151.20 m
8401703
71803
YQX

Download Data

Hourly Data (May 2012)
Hourly Data Report for May 30, 2012
Temp Definition
°C
Dew Point Temp Definition
°C
Rel Hum Definition
%
Wind Dir Definition
10's deg

Wind Spd Definition
km/h
Visibility Definition
km
Stn Press Definition
kPa
Hmdx Definition


Wind Chill Definition


Weather Definition


TIME
00:30 Legend Double Dagger 3.3 1.2 86 34 33 10.0 99.49     LegendNANA
01:30 Legend Double Dagger 2.6 1.4 92 32 28 4.8 99.51     Drizzle,Fog
02:30 Legend Double Dagger 2.4 1.8 96 32 26 4.0 99.55     Drizzle,Fog
03:30 Legend Double Dagger 2.3 1.7 96 33 23 4.0 99.53     Drizzle,Fog
04:30 Legend Double Dagger 2.4 1.8 96 33 24 3.2 99.52     Drizzle,Fog
05:30 Legend Double Dagger 2.6 2.0 96 32 23 4.0 99.51     Drizzle,Fog
06:30 Legend Double Dagger 3.0 2.4 96 34 21 4.0 99.50     Drizzle,Fog
07:30 Legend Double Dagger 3.0 2.4 96 35 24 6.4 99.48     Drizzle,Fog
08:30 Legend Double Dagger 3.1 2.5 96 34 23 4.0 99.45     Drizzle,Fog
09:30 Legend Double Dagger 3.5 3.1 97 33 21 4.0 99.47     Drizzle,Fog
10:30 Legend Double Dagger 3.7 3.1 96 34 22 4.0 99.44     Drizzle,Fog
11:30 Legend Double Dagger 3.7 3.1 96 33 25 4.8 99.44     Drizzle,Fog
12:30 Legend Double Dagger 4.0 3.4 96 33 19 4.8 99.43     Drizzle,Fog
13:30 Legend Double Dagger 3.9 3.2 95 32 26 6.4 99.40     Fog
14:30 Legend Double Dagger 4.0 3.1 94 33 26 10.0 99.39     Cloudy
15:30 Legend Double Dagger 4.2 3.2 93 34 26 10.0 99.38     LegendNANA
16:30 Legend Double Dagger 3.7 2.7 93 33 22 10.0 99.34     LegendNANA
17:30 Legend Double Dagger 3.7 1.9 88 34 17 10.0 99.32     Cloudy
18:30 Legend Double Dagger 3.1 1.5 89 33 15 10.0 99.35     LegendNANA
19:30 Legend Double Dagger 2.6 1.1 90 33 18 10.0 99.33     LegendNANA
20:30 Legend Double Dagger 2.4 1.2 92 1 15 10.0 99.38     Cloudy
21:30 Legend Double Dagger 2.0 0.8 92 35 10 10.0 99.40     LegendNANA
22:30 Legend Double Dagger 1.7 1.0 95 35 11 10.0 99.38     LegendNANA
23:30 Legend Double Dagger 1.7 1.0 95 32 8 9.7 99.37     Drizzle,Fog

Notes on Data Quality.

Legend

  • E = Estimated
  • M = Missing
  • NA = Not Available
  • ‡ = Partner data that is not subject to review by the National Climate Archives
Date modified: